EXS12C EGBB-LYTV

Flight info

Callsign EXS12C
Flight time N/A
Altitude 39000
Route COWLY Q70 BIG UL9 KONAN DCT KOK DCT SISGA DCT RITAX DCT KRH DCT UTABA DCT BEMKI DCT ELMEM DCT DIRAB DCT VESAL DCT UPIRO DCT BABAG DCT PEVAL DCT NERRA L607 BALHA L187 TAZ
Aircraft B738/M-SDE2E3FGHIRWXY/LB1

Departure

Time N/A
Airport Birmingham Airport (EGBB)

Arrival

Time 2026-04-28 12:26
Airport Tivat Airport (LYTV)
Time Latitude Longitude Altitude Speed Heading
2026-04-28 10:55 48.17814 9.55580 39089 ft 471 kts 144°
2026-04-28 10:56 48.12770 9.61832 39093 ft 470 kts 144°
2026-04-28 10:56 48.07722 9.68038 39097 ft 469 kts 144°
2026-04-28 10:57 48.02705 9.74169 39097 ft 469 kts 144°
2026-04-28 10:57 47.97653 9.80323 39094 ft 468 kts 145°
2026-04-28 10:58 47.92602 9.86460 39086 ft 468 kts 145°
2026-04-28 10:58 47.87555 9.92578 39092 ft 468 kts 145°
2026-04-28 10:59 47.82513 9.98674 39086 ft 468 kts 145°
2026-04-28 10:59 47.77487 10.04735 39058 ft 468 kts 145°
2026-04-28 11:00 47.72426 10.10823 39073 ft 468 kts 145°
2026-04-28 11:00 47.67652 10.16551 39073 ft 469 kts 145°
2026-04-28 11:01 47.62568 10.22638 39079 ft 470 kts 145°
2026-04-28 11:01 47.57575 10.28601 39079 ft 471 kts 145°
2026-04-28 11:02 47.52308 10.34345 39069 ft 469 kts 151°
2026-04-28 11:02 47.46964 10.39419 39068 ft 469 kts 152°
2026-04-28 11:03 47.41470 10.44645 39078 ft 470 kts 151°
2026-04-28 11:03 47.36588 10.49367 39078 ft 470 kts 150°
2026-04-28 11:04 47.31156 10.54630 39063 ft 471 kts 150°
2026-04-28 11:04 47.25711 10.59987 39071 ft 471 kts 149°
2026-04-28 11:05 47.20389 10.65608 39088 ft 470 kts 148°
2026-04-28 11:05 47.15090 10.71235 39081 ft 470 kts 148°
2026-04-28 11:06 47.09783 10.76803 39096 ft 469 kts 148°
2026-04-28 11:06 47.04516 10.82286 39089 ft 468 kts 148°
2026-04-28 11:07 46.99210 10.87794 39127 ft 467 kts 148°
2026-04-28 11:07 46.93890 10.93306 39122 ft 469 kts 148°
2026-04-28 11:08 46.88572 10.98805 39140 ft 469 kts 148°
2026-04-28 11:08 46.83242 11.04302 39139 ft 470 kts 148°
2026-04-28 11:09 46.78364 11.10628 39148 ft 476 kts 135°
2026-04-28 11:09 46.73884 11.17741 39137 ft 476 kts 135°
2026-04-28 11:10 46.69391 11.24852 39143 ft 477 kts 135°
2026-04-28 11:10 46.64858 11.31906 39068 ft 477 kts 136°
2026-04-28 11:11 46.60345 11.38870 39058 ft 476 kts 135°
2026-04-28 11:11 46.55824 11.45831 39054 ft 476 kts 136°
2026-04-28 11:12 46.51279 11.52815 39064 ft 476 kts 136°
2026-04-28 11:12 46.46726 11.59793 39077 ft 476 kts 136°
2026-04-28 11:13 46.42172 11.66758 39076 ft 476 kts 136°
2026-04-28 11:13 46.37680 11.73524 39101 ft 476 kts 138°
2026-04-28 11:14 46.32889 11.80123 39089 ft 475 kts 140°
2026-04-28 11:14 46.28122 11.86520 39098 ft 475 kts 140°
2026-04-28 11:15 46.23289 11.93044 39106 ft 475 kts 140°
2026-04-28 11:15 46.18489 11.99553 39112 ft 475 kts 139°
2026-04-28 11:16 46.13707 12.06038 39096 ft 475 kts 139°
2026-04-28 11:16 46.09185 12.12152 39099 ft 475 kts 139°
2026-04-28 11:17 46.04364 12.18653 39089 ft 475 kts 140°
2026-04-28 11:17 45.99588 12.25075 39077 ft 475 kts 140°
2026-04-28 11:18 45.94792 12.31511 39072 ft 475 kts 140°
2026-04-28 11:18 45.90679 12.37015 39080 ft 475 kts 140°
2026-04-28 11:19 45.85842 12.43475 39066 ft 475 kts 140°
2026-04-28 11:19 45.81005 12.49920 39071 ft 475 kts 140°
2026-04-28 11:20 45.76200 12.56305 39066 ft 475 kts 140°
2026-04-28 11:20 45.71442 12.62614 39063 ft 475 kts 140°
2026-04-28 11:21 45.67409 12.67951 39066 ft 475 kts 140°
2026-04-28 11:21 45.64126 12.72285 39049 ft 475 kts 140°
2026-04-28 11:22 45.61469 12.75976 39047 ft 476 kts 135°
2026-04-28 11:22 45.59314 12.79460 39116 ft 475 kts 131°
2026-04-28 11:23 45.57459 12.82887 39244 ft 472 kts 125°
2026-04-28 11:23 45.55714 12.87061 39306 ft 472 kts 123°
2026-04-28 11:24 45.53531 12.91039 39067 ft 474 kts 146°
2026-04-28 11:24 45.51913 12.92485 39007 ft 465 kts 161°
2026-04-28 11:24 45.50456 12.93333 39191 ft 456 kts 162°
2026-04-28 11:24 45.48879 12.94291 39584 ft 448 kts 156°
2026-04-28 11:25 45.47367 12.95474 39792 ft 445 kts 152°
2026-04-28 11:25 45.44343 12.98538 39190 ft 469 kts 137°
2026-04-28 11:25 45.43071 13.00630 38381 ft 494 kts 124°
2026-04-28 11:26 45.42193 13.02900 37868 ft 506 kts 112°
2026-04-28 11:26 45.41246 13.07029 37757 ft 499 kts 108°
2026-04-28 11:26 45.39977 13.10950 37967 ft 479 kts 126°
2026-04-28 11:26 45.38673 13.13372 38125 ft 469 kts 133°
2026-04-28 11:27 45.37589 13.15069 38215 ft 464 kts 138°
2026-04-28 11:27 45.34644 13.18813 38236 ft 461 kts 137°
2026-04-28 11:28 45.32435 13.22342 38221 ft 461 kts 140°
2026-04-28 11:28 45.29724 13.25551 38472 ft 455 kts 141°
2026-04-28 11:28 45.28582 13.27075 38626 ft 456 kts 133°
2026-04-28 11:29 45.27560 13.29040 38326 ft 467 kts 119°
2026-04-28 11:29 45.26125 13.33068 38217 ft 473 kts 119°
2026-04-28 11:29 45.24484 13.37095 38538 ft 471 kts 123°
2026-04-28 11:29 45.22691 13.40978 38779 ft 470 kts 126°
2026-04-28 11:30 45.20794 13.44772 38900 ft 472 kts 127°
2026-04-28 11:30 45.16836 13.52286 39027 ft 479 kts 128°
2026-04-28 11:30 45.14849 13.56006 39060 ft 481 kts 128°
2026-04-28 11:31 45.10805 13.63605 39071 ft 485 kts 128°
2026-04-28 11:31 45.06774 13.71224 39051 ft 479 kts 128°
2026-04-28 11:32 45.02813 13.78722 39064 ft 475 kts 128°
2026-04-28 11:32 44.98855 13.86193 39075 ft 475 kts 128°
2026-04-28 11:33 44.94912 13.93613 39073 ft 475 kts 128°
2026-04-28 11:33 44.90945 14.01060 39076 ft 475 kts 128°
2026-04-28 11:34 44.86964 14.08512 39069 ft 475 kts 128°
2026-04-28 11:34 44.82981 14.15949 39067 ft 476 kts 128°
2026-04-28 11:35 44.79011 14.23341 39065 ft 477 kts 128°
2026-04-28 11:35 44.75007 14.30780 39073 ft 477 kts 128°
2026-04-28 11:36 44.70990 14.38222 39065 ft 478 kts 129°
2026-04-28 11:36 44.66964 14.45660 39069 ft 479 kts 129°
2026-04-28 11:37 44.62951 14.53058 39065 ft 479 kts 129°
2026-04-28 11:37 44.58906 14.60495 39068 ft 480 kts 129°
2026-04-28 11:38 44.54847 14.67938 39072 ft 480 kts 129°
2026-04-28 11:38 44.50785 14.75366 39071 ft 480 kts 129°
2026-04-28 11:39 44.46745 14.82736 39071 ft 480 kts 129°
2026-04-28 11:39 44.42674 14.90144 39070 ft 480 kts 129°
2026-04-28 11:40 44.38600 14.97537 39054 ft 480 kts 129°
2026-04-28 11:40 44.34526 15.04912 39063 ft 479 kts 129°
2026-04-28 11:41 44.30481 15.12217 39070 ft 479 kts 129°
2026-04-28 11:41 44.26409 15.19550 39073 ft 478 kts 129°
2026-04-28 11:42 44.22328 15.26883 39076 ft 478 kts 129°
2026-04-28 11:42 44.18247 15.34194 39076 ft 478 kts 129°
2026-04-28 11:43 44.14157 15.41505 39062 ft 478 kts 129°
2026-04-28 11:43 44.10093 15.48751 39072 ft 478 kts 129°
2026-04-28 11:44 44.06002 15.56028 39075 ft 477 kts 129°
2026-04-28 11:44 44.01906 15.63294 39073 ft 477 kts 129°
2026-04-28 11:45 43.97805 15.70550 39073 ft 478 kts 129°
2026-04-28 11:45 43.93727 15.77750 39064 ft 478 kts 129°
2026-04-28 11:46 43.89613 15.84993 39066 ft 478 kts 129°
2026-04-28 11:46 43.85498 15.92222 39059 ft 478 kts 130°
2026-04-28 11:47 43.81378 15.99439 39066 ft 478 kts 130°
2026-04-28 11:47 43.77278 16.06605 39066 ft 478 kts 130°
2026-04-28 11:48 43.73135 16.13828 38725 ft 483 kts 130°
2026-04-28 11:48 43.71047 16.17461 38161 ft 482 kts 130°
2026-04-28 11:48 43.68973 16.21067 37768 ft 476 kts 130°
2026-04-28 11:49 43.66927 16.24620 37360 ft 471 kts 130°
2026-04-28 11:49 43.64900 16.28135 37005 ft 465 kts 130°
2026-04-28 11:49 43.62895 16.31608 36619 ft 461 kts 130°
2026-04-28 11:49 43.60907 16.35048 36259 ft 456 kts 130°
2026-04-28 11:50 43.58936 16.38453 35905 ft 452 kts 130°
2026-04-28 11:50 43.57008 16.41779 35537 ft 448 kts 130°
2026-04-28 11:50 43.55070 16.45119 35164 ft 445 kts 130°
2026-04-28 11:50 43.53146 16.48432 34800 ft 441 kts 130°
2026-04-28 11:51 43.51233 16.51721 34444 ft 438 kts 130°
2026-04-28 11:51 43.49335 16.54981 34083 ft 435 kts 130°
2026-04-28 11:51 43.47447 16.58220 33668 ft 432 kts 130°
2026-04-28 11:51 43.45569 16.61439 33282 ft 429 kts 130°
2026-04-28 11:52 43.43710 16.64622 32942 ft 425 kts 130°
2026-04-28 11:52 43.41864 16.67780 32571 ft 422 kts 130°
2026-04-28 11:52 43.40035 16.70904 32241 ft 418 kts 130°
2026-04-28 11:52 43.38243 16.73962 31876 ft 415 kts 130°
2026-04-28 11:53 43.36442 16.77033 31544 ft 411 kts 129°
2026-04-28 11:53 43.34650 16.80084 31212 ft 408 kts 129°
2026-04-28 11:53 43.32876 16.83102 30882 ft 405 kts 129°
2026-04-28 11:53 43.31111 16.86102 30549 ft 402 kts 129°
2026-04-28 11:54 43.29355 16.89084 30224 ft 400 kts 129°
2026-04-28 11:54 43.27612 16.92040 29847 ft 397 kts 129°
2026-04-28 11:54 43.25883 16.94970 29494 ft 393 kts 129°
2026-04-28 11:54 43.24192 16.97831 29141 ft 389 kts 129°
2026-04-28 11:55 43.22497 17.00698 28808 ft 385 kts 129°
2026-04-28 11:55 43.20817 17.03537 28467 ft 382 kts 130°
2026-04-28 11:55 43.19150 17.06351 28125 ft 379 kts 129°
2026-04-28 11:55 43.17495 17.09140 27794 ft 375 kts 129°
2026-04-28 11:56 43.15856 17.11903 27445 ft 373 kts 129°
2026-04-28 11:56 43.14226 17.14645 27131 ft 370 kts 129°
2026-04-28 11:56 43.12627 17.17334 26811 ft 367 kts 130°
2026-04-28 11:56 43.11020 17.20033 26484 ft 365 kts 129°
2026-04-28 11:57 43.09417 17.22724 26171 ft 364 kts 130°
2026-04-28 11:57 43.07813 17.25414 25850 ft 365 kts 130°
2026-04-28 11:57 43.06192 17.28131 25545 ft 373 kts 130°
2026-04-28 11:57 43.04534 17.30904 25207 ft 377 kts 130°
2026-04-28 11:58 43.02879 17.33672 24853 ft 376 kts 130°
2026-04-28 11:58 43.01229 17.36431 24533 ft 373 kts 130°
2026-04-28 11:58 42.99595 17.39159 24190 ft 370 kts 130°
2026-04-28 11:58 42.97986 17.41841 23861 ft 368 kts 129°
2026-04-28 11:59 42.96370 17.44534 23511 ft 366 kts 129°
2026-04-28 11:59 42.95285 17.46343 23260 ft 364 kts 129°
2026-04-28 11:59 42.93168 17.49866 22797 ft 360 kts 130°
2026-04-28 11:59 42.91585 17.52495 22461 ft 357 kts 130°
2026-04-28 12:00 42.90057 17.55151 22156 ft 354 kts 124°
2026-04-28 12:00 42.88704 17.57944 21902 ft 353 kts 123°
2026-04-28 12:00 42.87828 17.59806 21727 ft 351 kts 122°
2026-04-28 12:00 42.86093 17.63523 21380 ft 351 kts 122°
2026-04-28 12:01 42.84780 17.66331 21125 ft 352 kts 122°
2026-04-28 12:01 42.83459 17.69143 20914 ft 351 kts 122°
2026-04-28 12:01 42.82144 17.71932 20626 ft 347 kts 123°
2026-04-28 12:01 42.80842 17.74683 20310 ft 345 kts 122°
2026-04-28 12:02 42.79982 17.76497 20104 ft 343 kts 122°
2026-04-28 12:02 42.78692 17.79213 19789 ft 341 kts 123°
2026-04-28 12:02 42.77408 17.81913 19476 ft 339 kts 123°
2026-04-28 12:02 42.76172 17.84508 19173 ft 337 kts 123°
2026-04-28 12:03 42.74900 17.87177 18866 ft 335 kts 123°
2026-04-28 12:03 42.73634 17.89831 18552 ft 333 kts 123°
2026-04-28 12:03 42.72375 17.92467 18216 ft 332 kts 123°
2026-04-28 12:03 42.71122 17.95089 17873 ft 330 kts 123°
2026-04-28 12:04 42.69889 17.97667 17549 ft 328 kts 123°
2026-04-28 12:04 42.68650 18.00255 17225 ft 325 kts 123°
2026-04-28 12:04 42.67422 18.02818 16921 ft 323 kts 123°
2026-04-28 12:04 42.66201 18.05364 16623 ft 320 kts 123°
2026-04-28 12:05 42.64988 18.07890 16333 ft 318 kts 123°
2026-04-28 12:05 42.63783 18.10400 16026 ft 317 kts 123°
2026-04-28 12:05 42.62582 18.12899 15728 ft 315 kts 123°
2026-04-28 12:05 42.61388 18.15380 15435 ft 312 kts 123°
2026-04-28 12:06 42.60204 18.17840 15141 ft 311 kts 123°
2026-04-28 12:06 42.59043 18.20251 14841 ft 309 kts 123°
2026-04-28 12:06 42.57871 18.22681 14570 ft 307 kts 123°
2026-04-28 12:06 42.56700 18.25106 14275 ft 306 kts 124°
2026-04-28 12:07 42.55533 18.27519 13984 ft 305 kts 124°
2026-04-28 12:07 42.54347 18.29895 13693 ft 304 kts 125°
2026-04-28 12:07 42.53143 18.32233 13393 ft 301 kts 126°
2026-04-28 12:07 42.51557 18.35294 13009 ft 297 kts 126°
2026-04-28 12:08 42.50759 18.36837 12822 ft 296 kts 126°
2026-04-28 12:08 42.49584 18.39112 12536 ft 293 kts 126°
2026-04-28 12:08 42.48423 18.41364 12251 ft 291 kts 126°
2026-04-28 12:08 42.47267 18.43605 11973 ft 289 kts 125°
2026-04-28 12:09 42.46134 18.45799 11672 ft 288 kts 126°
2026-04-28 12:09 42.44987 18.48017 11390 ft 287 kts 125°
2026-04-28 12:09 42.43837 18.50216 11102 ft 286 kts 126°
2026-04-28 12:09 42.42686 18.52397 10827 ft 283 kts 126°
2026-04-28 12:10 42.41544 18.54558 10556 ft 282 kts 126°
2026-04-28 12:10 42.40411 18.56709 10278 ft 280 kts 126°
2026-04-28 12:10 42.39296 18.58838 10138 ft 273 kts 126°
2026-04-28 12:10 42.38203 18.60929 9832 ft 273 kts 126°
2026-04-28 12:11 42.37109 18.63019 9558 ft 272 kts 126°
2026-04-28 12:11 42.36033 18.65075 9282 ft 270 kts 126°
2026-04-28 12:11 42.34951 18.67139 9010 ft 268 kts 126°
2026-04-28 12:11 42.33874 18.69189 8741 ft 267 kts 126°
2026-04-28 12:12 42.32804 18.71226 8473 ft 265 kts 126°
2026-04-28 12:12 42.31740 18.73253 8228 ft 264 kts 126°
2026-04-28 12:12 42.30675 18.75282 7959 ft 265 kts 126°
2026-04-28 12:12 42.29609 18.77313 7691 ft 265 kts 126°
2026-04-28 12:13 42.28515 18.79306 7407 ft 264 kts 134°
2026-04-28 12:13 42.26988 18.80617 7163 ft 260 kts 160°
2026-04-28 12:13 42.25309 18.81415 6927 ft 259 kts 162°
2026-04-28 12:13 42.23610 18.82196 6664 ft 258 kts 162°
2026-04-28 12:14 42.21915 18.82975 6396 ft 257 kts 162°
2026-04-28 12:14 42.20222 18.83757 6124 ft 256 kts 162°
2026-04-28 12:14 42.18539 18.84539 5870 ft 255 kts 162°
2026-04-28 12:14 42.16864 18.85319 5598 ft 254 kts 162°
2026-04-28 12:15 42.15209 18.86093 5466 ft 248 kts 162°
2026-04-28 12:15 42.13598 18.86846 5340 ft 241 kts 162°
2026-04-28 12:15 42.12057 18.87567 5234 ft 234 kts 162°
2026-04-28 12:15 42.10531 18.88280 5129 ft 233 kts 162°
2026-04-28 12:16 42.08948 18.88569 5031 ft 233 kts 189°
2026-04-28 12:16 42.07346 18.88239 5022 ft 234 kts 188°
2026-04-28 12:16 42.05726 18.87980 5018 ft 235 kts 187°
2026-04-28 12:16 42.04086 18.87746 5019 ft 239 kts 187°
2026-04-28 12:17 42.02429 18.87522 5014 ft 239 kts 187°
2026-04-28 12:17 42.00786 18.87205 4997 ft 238 kts 199°
2026-04-28 12:17 41.99464 18.85957 5012 ft 234 kts 234°
2026-04-28 12:17 41.98874 18.83993 5004 ft 231 kts 265°
2026-04-28 12:18 41.99147 18.81876 5020 ft 237 kts 296°
2026-04-28 12:18 42.00244 18.80205 5017 ft 246 kts 328°
2026-04-28 12:18 42.01882 18.79549 5019 ft 251 kts 360°
2026-04-28 12:18 42.03582 18.80015 5022 ft 251 kts 18°
2026-04-28 12:19 42.05220 18.80838 5011 ft 251 kts 20°
2026-04-28 12:19 42.06854 18.81683 5003 ft 252 kts 20°
2026-04-28 12:19 42.08492 18.82516 4997 ft 251 kts 19°
2026-04-28 12:19 42.10131 18.83334 5005 ft 251 kts 19°
2026-04-28 12:20 42.11772 18.84143 5004 ft 251 kts 19°
2026-04-28 12:20 42.13407 18.84946 5004 ft 250 kts 19°
2026-04-28 12:20 42.15027 18.85736 4902 ft 254 kts 17°
2026-04-28 12:20 42.16781 18.85923 4493 ft 254 kts 345°
2026-04-28 12:21 42.18405 18.85143 4236 ft 243 kts 338°
2026-04-28 12:21 42.19958 18.84327 3964 ft 236 kts 338°
2026-04-28 12:21 42.21465 18.83531 3720 ft 229 kts 338°
2026-04-28 12:21 42.22942 18.82761 3496 ft 227 kts 338°
2026-04-28 12:22 42.24401 18.82005 3284 ft 221 kts 338°
2026-04-28 12:22 42.25808 18.81277 3045 ft 213 kts 338°
2026-04-28 12:22 42.27145 18.80587 2814 ft 204 kts 338°
2026-04-28 12:22 42.28450 18.79913 2568 ft 199 kts 338°
2026-04-28 12:23 42.29742 18.79257 2284 ft 197 kts 339°
2026-04-28 12:23 42.30995 18.78608 2065 ft 184 kts 334°
2026-04-28 12:23 42.32110 18.77996 1984 ft 164 kts 336°
2026-04-28 12:23 42.33182 18.77403 1993 ft 175 kts 338°
2026-04-28 12:24 42.34308 18.76809 1849 ft 170 kts 338°
2026-04-28 12:24 42.35399 18.76253 1504 ft 164 kts 341°
2026-04-28 12:24 42.36472 18.75880 1173 ft 157 kts 345°
2026-04-28 12:24 42.37486 18.75472 903 ft 149 kts 335°
2026-04-28 12:25 42.38351 18.74787 580 ft 139 kts 321°
2026-04-28 12:25 42.39073 18.73975 262 ft 134 kts 317°
2026-04-28 12:25 42.39782 18.73141 10 ft 134 kts 316°
2026-04-28 12:25 42.40402 18.72404 -7 ft 94 kts 320°
2026-04-28 12:26 42.40743 18.72003 -6 ft 49 kts 319°
2026-04-28 12:26 42.40915 18.71802 -4 ft 10 kts 331°
2026-04-28 12:26 42.40976 18.71822 -3 ft 10 kts 49°
2026-04-28 12:26 42.41034 18.71865 -5 ft 10 kts 346°
2026-04-28 12:27 42.41078 18.71793 -5 ft 10 kts 313°
2026-04-28 12:27 42.41129 18.71732 -5 ft 10 kts 319°
2026-04-28 12:27 42.41178 18.71673 -4 ft 9 kts 319°
2026-04-28 12:27 42.41226 18.71617 -3 ft 9 kts 319°
2026-04-28 12:28 42.41268 18.71617 -5 ft 8 kts 50°
2026-04-28 12:28 42.41257 18.71647 -5 ft 3 kts 192°
2026-04-28 12:28 42.41244 18.71653 -5 ft 0 kts 144°